Find Kosmos-651

NORAD ID: 7291 Int'l Des: 1974-029 Owner: VMF Country: SU operational
LEOCIRCULAR

当前视图

正在加载3D地球...

About Kosmos-651

Kosmos-651 (NORAD 7291) is a satellite by VMF of SU. It operates in LEO, CIRCULAR orbit

即将过境

Passes for default location (London). Set your location on the main map for personalized predictions.

高度历史

Loading altitude history...

两行轨道根数

1 07291U 74029A 26195.52742412 -.00000056 00000-0 27105-4 0 9992
2 07291 64.9695 241.8180 0027420 27.9358 332.3171 13.93095227654526
Epoch: Jul 14, 2026 • Age: 10 hours

当前状态

高度 947.0 km
远地点 / 近地点 N/A
速度 7.37 km/s
星下点 -27.22°S, 167.64°E
类型 other

Most Searched